Miscellaneous Local Product
Issued by NWS North Platte, NE

Home | Current Version | Previous Version | Text Only | Print | Product List | Glossary On
Versions: 1 2 3 4 5 6 7 8 9 10 11 12 13 14 15 16 17 18 19 20 21 22 23 24 25 26 27 28 29 30 31 32 33 34 35 36 37 38 39 40 41 42 43 44 45 46 47 48 49 50
348
AXUS43 KLBF 081910
MISLBF


WESTERN AND NORTH CENTRAL NEBRASKA HOURLY WEATHER ROUNDUP
NATIONAL WEATHER SERVICE NORTH PLATTE NE
100 PM CST MON FEB 08 2016

NOTE: "FAIR" INDICATES FEW OR NO CLOUDS BELOW 12,000 FEET WITH NO
SIGNIFICANT WEATHER AND/OR OBSTRUCTIONS TO VISIBILITY.

NOTE: STATIONS NOT REPORTING VARIABLES SUCH AS SKY/WEATHER OR
PRESSURE ARE PROVIDED BY THE NEBRASKA DEPARTMENT OF
ROADS...RAWS...AND APRS NETWORKS...AND ARE NOT UNDER
NATIONAL WEATHER SERVICE QUALITY CONTROL.

...OBSERVATIONS IN AND NEAR THE EASTERN PANHANDLE OF NEBRASKA...

CITY           SKY/WX    TMP DP  RH WIND       PRES   REMARKS
PINE RIDGE     CLOUDY    36   8  31 NW16G23   30.33F WCI  26
CHADRON        CLOUDY    38  13  35 NW23G30   30.35F WCI  27
ALLIANCE       CLOUDY    33  16  49 NW16      30.32F WCI  23
SIDNEY         MOSUNNY   37  22  54 NW14      30.34F WCI  28
CRESCENT LAKE    N/A     35  13  41 NW20G26     N/A  WCI  24
BIG SPRINGS      N/A     36  22  56 NW9         N/A  WCI  29
$$

...OBSERVATIONS IN NORTH CENTRAL NEBRASKA...

CITY           SKY/WX    TMP DP  RH WIND       PRES   REMARKS
VALENTINE      MOSUNNY   31  16  54 NW17G31   30.28F WCI  19
THEDFORD       MOSUNNY   36  14  40 NW26G38   30.26F WCI  24
AINSWORTH      SUNNY     33  14  45 NW29G36   30.24F WCI  20
O`NEILL        SUNNY     33  19  57 NW31G40   30.19F WCI  19
ORD            SUNNY     35  17  47 NW31G44   30.18F WCI  22
BROKEN BOW     SUNNY     34  14  43 NW23G43   30.22F WCI  22
VALENTINE NWR    N/A     31  13  47 NW23G32     N/A  WCI  18
BUTTE            N/A     32  19  58 W30G43      N/A  WCI  18
HALSEY           N/A     34  12  40 NW16G29     N/A  WCI  24
CHAMBERS         N/A     34  17  49 NW15G30     N/A  WCI  24
EWING            N/A     33  20  59 N15G28      N/A  WCI  23
$$

...OBSERVATIONS IN SOUTHWEST NEBRASKA AND FAR NORTHEAST COLORADO...

CITY           SKY/WX    TMP DP  RH WIND       PRES   REMARKS
WRAY           FAIR      37  19  46 NW16G24   30.38F WCI  28
HOLYOKE        FAIR      37  19  48 NW13G20   30.35F WCI  29
IMPERIAL       CLOUDY    35  16  45 NW17      30.34F WCI  25
OGALLALA       CLOUDY    36  15  43 NW23G30   30.33F WCI  24
NORTH PLATTE   CLOUDY    35  15  44 NW22G38   30.29F WCI  23
MCCOOK         CLOUDY    35  17  47 NW25G32   30.32F WCI  23
LEXINGTON      SUNNY     34  17  50 NW25G36   30.27F WCI  21
PAXTON           N/A     34  21  58 NW13        N/A  WCI  25
STAPLETON        N/A     34  17  49 NW5G15      N/A  WCI  30
GOTHENBURG       N/A     34  15  46 NW22        N/A  WCI  22
CALLAWAY         N/A     33  17  51 NW18        N/A  WCI  22
$$

...OBSERVATIONS IN CENTRAL LINCOLN COUNTY AREA...

CITY           SKY/WX    TMP DP  RH WIND       PRES   REMARKS
N.P. AIRPORT   CLOUDY    35  15  44 NW22G38   30.29F WCI  23
N.P. DOWNTOWN    N/A     34  15  46 NW15G26     N/A  WCI  24
N.P. SOUTHEAST   N/A     35  14  43 N12G24      N/A  WCI  27
N.P. HILLCREST   N/A     34  15  44 NW24G33     N/A  WCI  21
$$

...SOME OBSERVATIONS FROM AROUND THE REGION...

CITY           SKY/WX    TMP DP  RH WIND       PRES   REMARKS
DENVER         CLOUDY    39  21  48 SE5       30.37F
LARAMIE          N/A     39  24  55 NW25G35   30.40F WCI  28
CHEYENNE       SUNNY     41  24  51 NW18G29   30.35F
SCOTTSBLUFF    CLOUDY    38  22  52 NW13      30.36F WCI  30
RAPID CITY     CLOUDY    40   4  22 NW29G37   30.29F WCI  29
BISMARCK       MOSUNNY   35  17  47 N22G30    30.27S WCI  23
PIERRE         MOSUNNY   34  17  50 NW29G36   30.25F WCI  20
WINNER         FAIR      34  17  50 NW32      30.25F WCI  20
SIOUX FALLS    FLURRIES  23  14  68 NW24G31   30.09F WCI   7
OMAHA          CLOUDY    27  17  66 N23G36    30.09F WCI  12
GRAND ISLAND   SUNNY     33  18  53 NW28G38   30.18F WCI  20
KANSAS CITY    FLURRIES  31  18  58 NW22G31   30.05S WCI  18
WICHITA        MOSUNNY   44  13  28 NW29G44   30.23F
OKLAHOMA CITY  SUNNY     49   8  19 NW35G45   30.27F
LIBERAL        SUNNY     46  10  23 N25G32    30.40F
HAYS           SUNNY     37  12  35 NW31G40   30.30F WCI  25
GOODLAND       CLOUDY    36  16  44 NW26G32   30.34F WCI  24
$$




USA.gov is the U.S. government's official web portal to all federal, state and local government web resources and services.